TimeCST,TemperatureF,Dew PointF,Humidity,Sea Level PressureIn,VisibilityMPH,Wind Direction,Wind SpeedMPH,Gust SpeedMPH,PrecipitationIn,Events,Conditions,WindDirDegrees,DateUTC
12:08 AM,68.0,64.4,88,29.99,9.0,SSE,15.0,-,N/A,,Mostly Cloudy,150,2014-02-17 06:08:00
12:53 AM,68.0,64.9,90,29.98,9.0,SSE,13.8,23.0,N/A,,Overcast,160,2014-02-17 06:53:00
1:53 AM,66.9,64.9,93,29.97,8.0,SSE,13.8,-,N/A,,Mostly Cloudy,160,2014-02-17 07:53:00
2:51 AM,68.0,64.4,88,29.95,9.0,SSE,19.6,29.9,N/A,,Overcast,150,2014-02-17 08:51:00
2:53 AM,68.0,64.9,90,29.94,9.0,SSE,23.0,32.2,N/A,,Overcast,150,2014-02-17 08:53:00
3:31 AM,66.2,64.4,94,29.93,8.0,SSE,19.6,27.6,N/A,,Mostly Cloudy,150,2014-02-17 09:31:00
3:53 AM,66.9,64.0,90,29.94,8.0,SSE,16.1,24.2,N/A,,Mostly Cloudy,160,2014-02-17 09:53:00
4:24 AM,66.2,64.4,94,29.93,7.0,SSE,15.0,-,N/A,,Scattered Clouds,160,2014-02-17 10:24:00
4:53 AM,66.0,64.0,93,29.93,7.0,SSE,11.5,-,N/A,,Partly Cloudy,160,2014-02-17 10:53:00
5:53 AM,66.0,63.0,90,29.95,7.0,SSE,10.4,-,N/A,,Clear,150,2014-02-17 11:53:00
6:53 AM,64.9,63.0,93,29.95,6.0,SSE,9.2,-,N/A,,Clear,150,2014-02-17 12:53:00
7:53 AM,66.0,64.0,93,29.96,5.0,SE,15.0,24.2,N/A,,Clear,140,2014-02-17 13:53:00
8:53 AM,69.1,64.9,87,29.98,7.0,SSE,16.1,-,N/A,,Scattered Clouds,150,2014-02-17 14:53:00
9:00 AM,69.8,64.4,83,29.99,7.0,SSE,11.5,21.9,N/A,,Mostly Cloudy,160,2014-02-17 15:00:00
9:34 AM,71.6,64.4,78,29.99,8.0,SSE,18.4,25.3,N/A,,Overcast,160,2014-02-17 15:34:00
9:53 AM,72.0,64.9,78,30.00,8.0,SSE,13.8,23.0,N/A,,Overcast,160,2014-02-17 15:53:00
10:33 AM,73.4,64.4,73,30.00,9.0,SSE,16.1,-,N/A,,Scattered Clouds,160,2014-02-17 16:33:00
10:53 AM,75.9,64.9,69,29.99,9.0,SSE,16.1,21.9,N/A,,Partly Cloudy,160,2014-02-17 16:53:00
11:53 AM,81.0,64.9,58,29.98,10.0,SSE,13.8,23.0,N/A,,Clear,160,2014-02-17 17:53:00
12:53 PM,82.9,63.0,51,29.95,10.0,SSE,12.7,20.7,N/A,,Clear,160,2014-02-17 18:53:00
1:53 PM,84.9,62.1,46,29.93,10.0,South,10.4,-,N/A,,Clear,170,2014-02-17 19:53:00
2:53 PM,86.0,64.0,48,29.92,10.0,SSE,11.5,-,N/A,,Clear,150,2014-02-17 20:53:00
3:53 PM,84.0,64.9,53,29.92,10.0,SE,15.0,-,N/A,,Clear,140,2014-02-17 21:53:00
4:53 PM,81.0,64.9,58,29.94,10.0,ESE,17.3,-,N/A,,Clear,120,2014-02-17 22:53:00
5:53 PM,78.1,64.9,64,29.95,10.0,SE,15.0,-,N/A,,Clear,130,2014-02-17 23:53:00
6:53 PM,73.9,64.0,71,29.99,10.0,SE,12.7,-,N/A,,Clear,130,2014-02-18 00:53:00
7:53 PM,72.0,64.9,78,30.02,10.0,SE,15.0,-,N/A,,Clear,130,2014-02-18 01:53:00
8:53 PM,71.1,64.9,81,30.06,10.0,ESE,8.1,-,N/A,,Mostly Cloudy,120,2014-02-18 02:53:00
9:53 PM,71.1,66.0,84,30.07,10.0,SE,13.8,-,N/A,,Overcast,130,2014-02-18 03:53:00
10:45 PM,71.6,66.2,83,30.07,10.0,ESE,9.2,-,N/A,,Overcast,120,2014-02-18 04:45:00
10:53 PM,70.0,66.0,87,30.07,10.0,ESE,9.2,-,N/A,,Overcast,120,2014-02-18 04:53:00
11:53 PM,70.0,66.0,87,30.06,10.0,ESE,10.4,-,N/A,,Overcast,120,2014-02-18 05:53:00